| time (UTC) | temp F | wind direction | speed MPH | gust MPH | rain 1hr in | rain 24hr in | rain mn in | humidity % | barometer mb |
| 20260506043217 | 53 | 0 | 0.0 | 2.0 | 0.00 | 0.35 | 0.07 | 95 | 1002.4 |
| 20260506042003 | 53 | 0 | 0.0 | 2.0 | 0.00 | 0.35 | 0.07 | 95 | 1002.4 |
| 20260506041003 | 53 | 0 | 0.0 | 0.0 | 0.00 | 0.36 | 0.07 | 95 | 1002.3 |
| 20260506040003 | 53 | 0 | 0.0 | 2.0 | 0.00 | 0.36 | 0.07 | 95 | 1002.3 |
| 20260506035003 | 53 | 246 | 1.0 | 2.0 | 0.00 | 0.36 | 0.07 | 95 | 1002.3 |
| 20260506034003 | 53 | 0 | 0.0 | 6.0 | 0.00 | 0.36 | 0.07 | 95 | 1002.3 |
| 20260506033006 | 53 | 288 | 1.0 | 1.0 | 0.00 | 0.36 | 0.07 | 95 | 1002.2 |
| 20260506032003 | 53 | 283 | 0.0 | 6.0 | 0.00 | 0.36 | 0.07 | 95 | 1002.3 |
| 20260506031003 | 53 | 0 | 0.0 | 0.0 | 0.00 | 0.36 | 0.07 | 94 | 1002.3 |
| 20260506030003 | 53 | 192 | 1.0 | 3.0 | 0.00 | 0.37 | 0.07 | 95 | 1002.4 |
| 20260506025216 | 54 | 187 | 1.0 | 3.0 | 0.00 | 0.37 | 0.07 | 95 | 1002.4 |
| 20260506024006 | 54 | 217 | 1.0 | 2.0 | 0.00 | 0.37 | 0.07 | 94 | 1002.5 |
| 20260506023003 | 54 | 174 | 1.0 | 4.0 | 0.00 | 0.37 | 0.07 | 95 | 1002.6 |
| 20260506022218 | 54 | 184 | 2.0 | 4.0 | 0.00 | 0.37 | 0.07 | 95 | 1002.6 |
| 20260506021218 | 54 | 175 | 1.0 | 4.0 | 0.00 | 0.37 | 0.07 | 95 | 1002.5 |
| 20260506020003 | 54 | 181 | 0.0 | 2.0 | 0.01 | 0.37 | 0.07 | 95 | 1002.5 |
| 20260506015006 | 54 | 181 | 0.0 | 5.0 | 0.01 | 0.37 | 0.07 | 95 | 1002.5 |
| 20260506014003 | 54 | 199 | 1.0 | 2.0 | 0.02 | 0.37 | 0.07 | 95 | 1002.4 |
| 20260506013003 | 54 | 199 | 2.0 | 7.0 | 0.02 | 0.37 | 0.07 | 95 | 1002.4 |
| 20260506012003 | 54 | 153 | 1.0 | 3.0 | 0.02 | 0.37 | 0.07 | 95 | 1002.4 |
| 20260506011218 | 54 | 271 | 2.0 | 4.0 | 0.02 | 0.37 | 0.07 | 95 | 1002.3 |
| 20260506010003 | 54 | 321 | 2.0 | 7.0 | 0.02 | 0.36 | 0.06 | 95 | 1002.3 |
| 20260506005003 | 54 | 305 | 3.0 | 8.0 | 0.02 | 0.36 | 0.06 | 95 | 1002.3 |
| 20260506004006 | 54 | 284 | 4.0 | 7.0 | 0.02 | 0.36 | 0.06 | 95 | 1002.4 |
| 20260506003003 | 54 | 288 | 5.0 | 11.0 | 0.04 | 0.36 | 0.06 | 94 | 1002.4 |
| 20260506002003 | 54 | 280 | 3.0 | 11.0 | 0.06 | 0.36 | 0.06 | 94 | 1002.5 |
| 20260506001003 | 54 | 261 | 2.0 | 5.0 | 0.06 | 0.36 | 0.06 | 95 | 1002.5 |
| 20260506000003 | 54 | 269 | 3.0 | 8.0 | 0.05 | 0.35 | 0.05 | 95 | 1002.5 |
| 20260505235006 | 54 | 279 | 2.0 | 7.0 | 0.05 | 0.35 | 0.05 | 94 | 1002.4 |
| 20260505234003 | 55 | 291 | 1.0 | 4.0 | 0.04 | 0.35 | 0.04 | 94 | 1002.3 |
| 20260505233003 | 55 | 288 | 1.0 | 4.0 | 0.02 | 0.32 | 0.02 | 94 | 1002.3 |
| 20260505232006 | 55 | 360 | 1.0 | 3.0 | 0.00 | 0.31 | 0.00 | 94 | 1002.4 |
| 20260505231003 | 55 | 19 | 2.0 | 3.0 | 0.00 | 0.31 | 0.00 | 94 | 1002.3 |
| 20260505230003 | 55 | 16 | 4.0 | 9.0 | 0.00 | 0.31 | 0.00 | 94 | 1002.4 |
| 20260505225003 | 55 | 18 | 1.0 | 8.0 | 0.01 | 0.31 | 0.00 | 94 | 1002.4 |
| 20260505224003 | 55 | 40 | 1.0 | 4.0 | 0.02 | 0.31 | 0.00 | 94 | 1002.5 |
| 20260505223003 | 55 | 64 | 1.0 | 4.0 | 0.02 | 0.31 | 0.00 | 94 | 1002.6 |
| 20260505222003 | 55 | 136 | 1.0 | 4.0 | 0.03 | 0.31 | 0.00 | 94 | 1002.6 |
| 20260505221006 | 55 | 152 | 2.0 | 5.0 | 0.04 | 0.31 | 0.00 | 94 | 1002.8 |
| 20260505220003 | 56 | 165 | 3.0 | 6.0 | 0.06 | 0.31 | 0.00 | 94 | 1002.9 |
| 20260505215003 | 56 | 143 | 3.0 | 8.0 | 0.08 | 0.30 | 0.30 | 93 | 1003.0 |
| 20260505214003 | 56 | 141 | 1.0 | 7.0 | 0.09 | 0.29 | 0.29 | 93 | 1003.0 |
| 20260505213218 | 57 | 104 | 0.0 | 3.0 | 0.10 | 0.28 | 0.28 | 94 | 1003.1 |
| 20260505212006 | 57 | 39 | 3.0 | 6.0 | 0.13 | 0.28 | 0.28 | 93 | 1003.1 |
| 20260505211218 | 57 | 51 | 4.0 | 7.0 | 0.15 | 0.27 | 0.27 | 93 | 1003.0 |
| 20260505210003 | 57 | 37 | 4.0 | 10.0 | 0.15 | 0.24 | 0.24 | 93 | 1003.0 |
| 20260505205003 | 57 | 16 | 3.0 | 10.0 | 0.15 | 0.22 | 0.22 | 93 | 1003.0 |
| 20260505204003 | 57 | 23 | 3.0 | 6.0 | 0.14 | 0.20 | 0.20 | 92 | 1003.1 |
| 20260505203003 | 58 | 347 | 2.0 | 8.0 | 0.13 | 0.17 | 0.17 | 92 | 1003.3 |
| 20260505202003 | 58 | 220 | 2.0 | 5.0 | 0.10 | 0.14 | 0.14 | 91 | 1003.7 |
| 20260505201006 | 58 | 149 | 2.0 | 7.0 | 0.08 | 0.11 | 0.11 | 91 | 1003.8 |
| 20260505200006 | 58 | 112 | 1.0 | 3.0 | 0.06 | 0.09 | 0.09 | 90 | 1003.8 |
| 20260505195218 | 58 | 325 | 2.0 | 3.0 | 0.05 | 0.08 | 0.08 | 90 | 1003.6 |
| 20260505194003 | 59 | 319 | 2.0 | 3.0 | 0.02 | 0.06 | 0.06 | 89 | 1003.4 |
| 20260505193003 | 59 | 340 | 1.0 | 3.0 | 0.02 | 0.05 | 0.05 | 89 | 1003.4 |
| 20260505192006 | 59 | 200 | 1.0 | 3.0 | 0.01 | 0.06 | 0.04 | 88 | 1003.6 |
| 20260505191008 | 59 | 11 | 2.0 | 5.0 | 0.00 | 0.06 | 0.03 | 87 | 1003.3 |
| 20260505190003 | 59 | 344 | 2.0 | 7.0 | 0.00 | 0.08 | 0.03 | 87 | 1002.9 |
| 20260505185003 | 59 | 356 | 2.0 | 7.0 | 0.00 | 0.09 | 0.03 | 86 | 1002.9 |
| 20260505184003 | 59 | 352 | 1.0 | 5.0 | 0.00 | 0.09 | 0.03 | 85 | 1002.9 |
| 20260505183003 | 60 | 356 | 1.0 | 5.0 | 0.00 | 0.09 | 0.03 | 84 | 1002.9 |
| 20260505182003 | 60 | 358 | 1.0 | 3.0 | 0.00 | 0.10 | 0.03 | 84 | 1003.0 |
| 20260505181003 | 60 | 13 | 2.0 | 8.0 | 0.00 | 0.10 | 0.03 | 83 | 1003.1 |
| 20260505180003 | 60 | 5 | 2.0 | 7.0 | 0.00 | 0.11 | 0.03 | 83 | 1003.2 |
| 20260505175003 | 60 | 360 | 3.0 | 11.0 | 0.00 | 0.11 | 0.03 | 82 | 1003.2 |
| 20260505174217 | 60 | 4 | 3.0 | 8.0 | 0.00 | 0.11 | 0.03 | 82 | 1003.3 |
| 20260505173006 | 61 | 8 | 4.0 | 9.0 | 0.00 | 0.13 | 0.03 | 83 | 1003.4 |
| 20260505172003 | 61 | 15 | 4.0 | 8.0 | 0.00 | 0.13 | 0.03 | 82 | 1003.4 |
| 20260505171003 | 62 | 13 | 3.0 | 9.0 | 0.00 | 0.13 | 0.03 | 81 | 1003.7 |
| 20260505170003 | 62 | 14 | 4.0 | 10.0 | 0.00 | 0.13 | 0.03 | 80 | 1003.7 |
| 20260505165003 | 62 | 6 | 3.0 | 9.0 | 0.00 | 0.13 | 0.03 | 80 | 1003.9 |
| 20260505164003 | 62 | 26 | 4.0 | 7.0 | 0.00 | 0.13 | 0.03 | 79 | 1004.0 |
| 20260505163216 | 63 | 27 | 4.0 | 8.0 | 0.00 | 0.13 | 0.03 | 79 | 1004.1 |
| 20260505162003 | 63 | 24 | 4.0 | 10.0 | 0.00 | 0.13 | 0.03 | 78 | 1004.0 |
| 20260505161216 | 63 | 32 | 4.0 | 9.0 | 0.00 | 0.13 | 0.03 | 78 | 1004.0 |
| 20260505153003 | 63 | 21 | 5.0 | 13.0 | 0.00 | 0.13 | 0.03 | 78 | 1004.1 |
| 20260505152006 | 64 | 23 | 5.0 | 10.0 | 0.00 | 0.13 | 0.03 | 78 | 1004.2 |
| 20260505151218 | 63 | 33 | 6.0 | 11.0 | 0.00 | 0.13 | 0.03 | 77 | 1004.2 |
| 20260505130221 | 65 | 50 | 4.0 | 9.0 | 0.00 | 0.13 | 0.03 | 79 | 1005.4 |
| 20260505125003 | 64 | 42 | 4.0 | 11.0 | 0.00 | 0.13 | 0.03 | 78 | 1005.5 |
| 20260505124217 | 64 | 35 | 4.0 | 9.0 | 0.00 | 0.13 | 0.03 | 79 | 1005.7 |
| 20260505123003 | 64 | 39 | 4.0 | 11.0 | 0.00 | 0.13 | 0.03 | 78 | 1005.8 |
| 20260505122003 | 64 | 38 | 4.0 | 9.0 | 0.00 | 0.13 | 0.03 | 80 | 1005.9 |
| 20260505121003 | 63 | 19 | 4.0 | 9.0 | 0.00 | 0.13 | 0.03 | 80 | 1006.0 |
| 20260505120217 | 63 | 32 | 5.0 | 9.0 | 0.00 | 0.13 | 0.03 | 80 | 1006.0 |
| 20260505115217 | 63 | 46 | 4.0 | 9.0 | 0.00 | 0.13 | 0.03 | 80 | 1006.1 |
| 20260505114003 | 62 | 73 | 3.0 | 9.0 | 0.00 | 0.13 | 0.03 | 81 | 1006.1 |
| 20260505113006 | 62 | 53 | 4.0 | 8.0 | 0.00 | 0.13 | 0.03 | 82 | 1006.2 |
| 20260505112003 | 62 | 51 | 3.0 | 8.0 | 0.00 | 0.13 | 0.03 | 85 | 1006.2 |
| 20260505111003 | 61 | 64 | 3.0 | 8.0 | 0.00 | 0.13 | 0.03 | 88 | 1006.3 |
| 20260505102003 | 58 | 23 | 2.0 | 4.0 | 0.00 | 0.13 | 0.03 | 94 | 1006.7 |
| 20260505101003 | 58 | 27 | 1.0 | 5.0 | 0.00 | 0.13 | 0.03 | 95 | 1006.8 |
| 20260505100003 | 58 | 0 | 0.0 | 3.0 | 0.00 | 0.13 | 0.03 | 95 | 1006.9 |
| 20260505095003 | 58 | 0 | 0.0 | 0.0 | 0.00 | 0.13 | 0.03 | 95 | 1007.0 |
| 20260505094006 | 57 | 0 | 0.0 | 0.0 | 0.00 | 0.13 | 0.03 | 95 | 1007.0 |
| 20260505093004 | 57 | 0 | 0.0 | 0.0 | 0.00 | 0.13 | 0.03 | 95 | 1007.1 |
| 20260505092003 | 57 | 0 | 0.0 | 0.0 | 0.00 | 0.13 | 0.03 | 95 | 1007.2 |
| 20260505091006 | 57 | 0 | 0.0 | 0.0 | 0.00 | 0.13 | 0.03 | 95 | 1007.2 |
| 20260505090003 | 57 | 0 | 0.0 | 0.0 | 0.00 | 0.13 | 0.03 | 95 | 1007.3 |
| 20260505085003 | 57 | 0 | 0.0 | 0.0 | 0.00 | 0.13 | 0.03 | 95 | 1007.4 |
| 20260505084003 | 57 | 0 | 0.0 | 0.0 | 0.00 | 0.13 | 0.03 | 95 | 1007.4 |
| 20260505083003 | 56 | 0 | 0.0 | 0.0 | 0.00 | 0.13 | 0.03 | 95 | 1007.4 |
| 20260505082006 | 56 | 75 | 1.0 | 2.0 | 0.00 | 0.13 | 0.03 | 95 | 1007.2 |
| 20260505081003 | 56 | 68 | 0.0 | 2.0 | 0.00 | 0.13 | 0.03 | 95 | 1007.2 |
| 20260505080003 | 56 | 0 | 0.0 | 2.0 | 0.00 | 0.13 | 0.03 | 95 | 1007.1 |
| 20260505075003 | 56 | 0 | 0.0 | 0.0 | 0.00 | 0.13 | 0.03 | 95 | 1007.1 |
| 20260505074003 | 56 | 0 | 0.0 | 0.0 | 0.00 | 0.13 | 0.03 | 95 | 1007.1 |
| 20260505073003 | 56 | 0 | 0.0 | 0.0 | 0.00 | 0.13 | 0.03 | 96 | 1007.0 |
| 20260505072003 | 56 | 0 | 0.0 | 0.0 | 0.00 | 0.13 | 0.03 | 96 | 1007.1 |
| 20260505071006 | 56 | 0 | 0.0 | 0.0 | 0.00 | 0.13 | 0.03 | 95 | 1007.1 |
| 20260505070003 | 56 | 292 | 1.0 | 4.0 | 0.00 | 0.13 | 0.03 | 95 | 1007.1 |
| 20260505065003 | 56 | 308 | 1.0 | 3.0 | 0.00 | 0.13 | 0.03 | 95 | 1007.2 |
| 20260505064006 | 56 | 289 | 1.0 | 3.0 | 0.00 | 0.13 | 0.03 | 95 | 1007.3 |
| 20260505063003 | 55 | 0 | 0.0 | 2.0 | 0.00 | 0.13 | 0.03 | 95 | 1007.2 |
| 20260505062003 | 55 | 0 | 0.0 | 1.0 | 0.01 | 0.13 | 0.03 | 95 | 1007.2 |
| 20260505061003 | 55 | 0 | 0.0 | 2.0 | 0.01 | 0.13 | 0.03 | 95 | 1007.1 |
| 20260505060003 | 55 | 0 | 0.0 | 0.0 | 0.01 | 0.13 | 0.03 | 95 | 1006.9 |
| 20260505055003 | 55 | 0 | 0.0 | 0.0 | 0.01 | 0.13 | 0.03 | 95 | 1007.0 |
| 20260505054216 | 55 | 0 | 0.0 | 0.0 | 0.01 | 0.13 | 0.03 | 95 | 1007.2 |
| 20260505053003 | 54 | 0 | 0.0 | 0.0 | 0.01 | 0.13 | 0.03 | 95 | 1007.5 |
| 20260505052003 | 54 | 0 | 0.0 | 0.0 | 0.00 | 0.13 | 0.02 | 95 | 1007.5 |
| 20260505051218 | 54 | 0 | 0.0 | 0.0 | 0.01 | 0.13 | 0.02 | 95 | 1007.6 |